Find DMSP F-7

NORAD ID: 14506 Int'l Des: 1983-113 Owner: AFSD Country: US operational
LEOCIRCULARRETROGRADESSO

当前视图

正在加载3D地球...

关于 DMSP F-7

正在加载描述...

即将过境

Passes for default location (London). Set your location on the main map for personalized predictions.

高度历史

Loading altitude history...

两行轨道根数

1 14506U 83113A 26150.99646588 .00000268 00000-0 12066-3 0 9995
2 14506 98.4238 296.9113 0009559 282.8949 188.8878 14.29819738213032
Epoch: May 30, 2026 • Age: 16 hours

当前状态

高度 794.2 km
速度 7.46 km/s
星下点 -5.40°S, 166.74°E
发射日期 Nov 18, 1983
运行时间 42.5 years
类型 other

技术详情

分类 Payload
质量 773.00 kg
干质量 773.00 kg
总质量 1487.00 kg
长度 6.90 m
直径 1.50 m
跨度 6.90 m
形状 Box + Pan
制造商 RCA
平台类型 Block 5D
阶段状态 In Orbit
所有者/国家 AFSD/US

Most Searched